Avoca, PA

4:21 PM EST on November 21, 2019 (GMT -0500)
Wilkes-Barre-Scranton International

Weather History for KAVP - September, 2019

Change the Weather History Date:

Friday, September 6, 2019

  Actual Average Record
Temperature  
Mean Temperature 63 °F 66 °F  
Max Temperature 72 °F 76 °F 93 °F (1900)
Min Temperature 53 °F 56 °F 40 °F (1938)
Degree Days  
Heating Degree Days 2 2  
Month to date heating degree days 3 11  
Since 1 July heating degree days 4 37  
Cooling Degree Days 0 3  
Month to date cooling degree days 19 19  
Year to date cooling degree days 758 543  
Growing Degree Days 13 (Base 50)    
Moisture  
Dew Point 52 °F    
Average Humidity 67    
Maximum Humidity 86    
Minimum Humidity 47    
Precipitation  
Precipitation 0.00 in 0.13 in 2.81 in (2011)
Month to date precipitation 0.05 0.76  
Year to date precipitation 37.71 25.79  
Sea Level Pressure  
Sea Level Pressure 29.92 in    
Wind  
Wind Speed 5 mph (East)    
Max Wind Speed 13 mph    
Max Gust Speed 17 mph    
Visibility 10 miles    
Events      
T = Trace of Precipitation, MM = Missing Value Source: NWS Daily Summary

Daily Weather History Graph

Daily Weather History Graph

Search for Another Location

Airport or City:

Astronomy

Sep. 06, 2019 Rise Set
Actual Time 6:33 AM EDT 7:27 PM EDT
Civil Twilight 6:05 AM EDT 7:55 PM EDT
Nautical Twilight 5:32 AM EDT 8:29 PM EDT
Astronomical Twilight 4:57 AM EDT 9:03 PM EDT
Moon 2:45 PM EDT (9/6) No Moon Set
Length of Visible Light 13h 50m
Length of Day
12h 53m
First Quarter, 55% of the Moon is Illuminated
Sep 6
First Quarter
Sep 14
Full
Sep 21
Last Quarter
Sep 28
New
Oct 5
First Quarter

Hourly Weather History & Observations

Time (EDT) Temp. Dew Point Humidity Pressure Visibility Wind Dir Wind Speed Gust Speed Precip Events Conditions
12:54 AM 57.0 °F 53.1 °F 87% 30.03 in 10.0 mi ESE 4.6 mph - N/A   Clear
1:54 AM 57.0 °F 53.1 °F 87% 30.02 in 10.0 mi ESE 3.5 mph - N/A   Clear
2:54 AM 55.9 °F 52.0 °F 87% 30.01 in 10.0 mi ESE 5.8 mph - N/A   Clear
3:54 AM 55.0 °F 52.0 °F 89% 30.01 in 10.0 mi East 4.6 mph - N/A   Clear
4:54 AM 55.0 °F 52.0 °F 89% 29.99 in 10.0 mi East 3.5 mph - N/A   Clear
5:54 AM 55.9 °F 52.0 °F 87% 29.99 in 10.0 mi East 4.6 mph - N/A   Clear
6:54 AM 55.0 °F 52.0 °F 89% 29.99 in 10.0 mi East 3.5 mph - N/A   Clear
7:54 AM 57.0 °F 53.1 °F 87% 29.99 in 10.0 mi Calm Calm - N/A   Clear
8:54 AM 59.0 °F 54.0 °F 83% 29.98 in 10.0 mi Calm Calm - N/A   Clear
9:54 AM 62.1 °F 53.1 °F 72% 29.97 in 10.0 mi ENE 8.1 mph - N/A   Clear
10:54 AM 64.0 °F 54.0 °F 70% 29.94 in 10.0 mi NE 6.9 mph - N/A   Clear
11:54 AM 66.9 °F 53.1 °F 61% 29.91 in 10.0 mi ENE 8.1 mph - N/A   Clear
12:54 PM 68.0 °F 52.0 °F 56% 29.89 in 10.0 mi Variable 6.9 mph - N/A   Clear
1:54 PM 68.0 °F 50.0 °F 52% 29.87 in 10.0 mi Variable 3.5 mph - N/A   Clear
2:54 PM 69.1 °F 48.0 °F 47% 29.84 in 10.0 mi NE 6.9 mph - N/A   Clear
3:54 PM 72.0 °F 50.0 °F 46% 29.83 in 10.0 mi ENE 6.9 mph - N/A   Clear
4:54 PM 69.1 °F 48.9 °F 49% 29.83 in 10.0 mi East 6.9 mph - N/A   Clear
5:54 PM 68.0 °F 50.0 °F 52% 29.83 in 10.0 mi East 6.9 mph - N/A   Clear
6:54 PM 66.0 °F 51.1 °F 59% 29.82 in 10.0 mi East 3.5 mph - N/A   Clear
7:54 PM 62.1 °F 53.1 °F 72% 29.85 in 10.0 mi ENE 5.8 mph - N/A   Clear
8:54 PM 60.1 °F 50.0 °F 69% 29.85 in 10.0 mi East 4.6 mph - N/A   Clear
9:54 PM 57.9 °F 51.1 °F 78% 29.83 in 10.0 mi East 4.6 mph - N/A   Partly Cloudy
10:54 PM 57.9 °F 51.1 °F 78% 29.83 in 10.0 mi East 4.6 mph - N/A   Overcast
11:54 PM 55.9 °F 51.1 °F 84% 29.82 in 10.0 mi Calm Calm - N/A   Clear